TimeMDT,TemperatureF,Dew PointF,Humidity,Sea Level PressureIn,VisibilityMPH,Wind Direction,Wind SpeedMPH,Gust SpeedMPH,PrecipitationIn,Events,Conditions,WindDirDegrees,DateUTC
12:56 AM,26.1,25.0,96,30.34,-9999.0,NW,3.5,-,N/A,,Unknown,320,2013-10-07 06:56:00
1:56 AM,26.1,24.1,92,30.30,-9999.0,NW,3.5,-,N/A,,Unknown,310,2013-10-07 07:56:00
2:56 AM,25.0,24.1,96,30.29,-9999.0,Calm,Calm,-,N/A,,Unknown,0,2013-10-07 08:56:00
3:56 AM,24.1,23.0,96,30.25,-9999.0,Calm,Calm,-,N/A,,Unknown,0,2013-10-07 09:56:00
4:56 AM,24.1,21.9,91,30.23,-9999.0,NW,3.5,-,N/A,,Unknown,310,2013-10-07 10:56:00
5:56 AM,23.0,21.0,92,30.24,-9999.0,Calm,Calm,-,N/A,,Unknown,0,2013-10-07 11:56:00
6:56 AM,23.0,21.0,92,30.30,-9999.0,Calm,Calm,-,N/A,,Unknown,0,2013-10-07 12:56:00
7:56 AM,24.1,21.9,91,30.30,-9999.0,Calm,Calm,-,N/A,,Unknown,0,2013-10-07 13:56:00
8:56 AM,30.0,28.0,92,30.27,-9999.0,Calm,Calm,-,N/A,,Unknown,0,2013-10-07 14:56:00
9:56 AM,37.9,32.0,79,30.22,-9999.0,Calm,Calm,-,N/A,,Unknown,0,2013-10-07 15:56:00
10:56 AM,41.0,34.0,76,30.19,-9999.0,East,3.5,-,N/A,,Unknown,100,2013-10-07 16:56:00
11:56 AM,45.0,33.1,63,30.13,-9999.0,Variable,3.5,-,N/A,,Unknown,0,2013-10-07 17:56:00
12:56 PM,53.1,25.0,34,30.06,-9999.0,Variable,5.8,-,N/A,,Unknown,0,2013-10-07 18:56:00
1:56 PM,55.9,25.0,30,30.01,-9999.0,Variable,6.9,23.0,N/A,,Unknown,0,2013-10-07 19:56:00
2:56 PM,55.9,25.0,30,29.99,-9999.0,Variable,6.9,-,N/A,,Unknown,0,2013-10-07 20:56:00
3:56 PM,55.0,24.1,30,29.98,-9999.0,SW,8.1,-,N/A,,Unknown,230,2013-10-07 21:56:00
4:56 PM,55.0,25.0,31,29.97,-9999.0,Variable,5.8,-,N/A,,Unknown,0,2013-10-07 22:56:00
5:56 PM,52.0,27.0,38,29.98,-9999.0,Variable,4.6,-,N/A,,Unknown,0,2013-10-07 23:56:00
6:56 PM,46.0,28.0,50,30.01,-9999.0,Calm,Calm,-,N/A,,Unknown,0,2013-10-08 00:56:00
7:56 PM,35.1,28.9,78,30.06,-9999.0,Calm,Calm,-,N/A,,Unknown,0,2013-10-08 01:56:00
8:56 PM,30.9,27.0,85,30.05,-9999.0,Calm,Calm,-,N/A,,Unknown,0,2013-10-08 02:56:00
9:56 PM,30.0,27.0,88,30.01,-9999.0,Calm,Calm,-,N/A,,Unknown,0,2013-10-08 03:56:00
10:56 PM,30.9,28.0,89,29.97,-9999.0,Calm,Calm,-,N/A,,Unknown,0,2013-10-08 04:56:00
11:56 PM,28.0,26.1,92,29.94,-9999.0,Calm,Calm,-,N/A,,Unknown,0,2013-10-08 05:56:00